Location: Griffin Ranch
(33.6186°N, 110.6622°W)
Time: 00:41:05
(UTC-07:00)

Daily predictions for brighter satellites

Satellite Brightness Start Highest point End
(mag) Time Altitude Azimuth Time Altitude Azimuth Time Altitude Azimuth
USA 234 4.2 03:43:02 10° ENE 03:48:27 40° ESE 03:48:27 40° ESE
ATLAS 3B R/B 4.3 03:54:41 20° SSE 03:58:29 31° ESE 04:04:50 10° NE
Cosmos 1140 Rocket 4.5 04:29:08 10° N 04:34:10 46° ENE 04:39:10 10° SE
Cosmos 1943 Rocket 4.2 04:38:13 16° N 04:38:13 16° N 04:39:29 10° N
ATLAS CENTAUR R/B 3.7 04:37:39 56° WNW 04:39:21 68° SW 04:58:18 10° SSE
Lacrosse 5 4.1 04:43:56 13° N 04:43:56 13° N 04:45:02 10° N
CZ-4C R/B 3.0 04:45:54 37° NNW 04:45:54 37° NNW 04:50:00 10° NNE
S3M 4.4 04:38:33 10° S 04:44:48 64° E 04:51:01 10° NNE
ADEOS II 3.2 04:40:11 10° N 04:43:03 32° N 04:43:03 32° N
Okean 1-7 4.2 04:51:28 32° N 04:51:28 32° N 04:53:50 10° N
Cosmos 1553 Rocket 4.1 04:44:00 10° S 04:50:09 75° E 04:56:26 10° N
CZ-4B R/B 4.1 04:57:02 10° N 05:00:43 33° NW 05:00:43 33° NW
Feng Yun 1-1 Rocket 4.3 04:58:27 10° NNE 05:04:24 88° E 05:10:19 10° SSW
Gblst 52 Del rocket 4.2 05:07:37 40° SW 05:09:45 87° SE 05:15:53 10° NE
Cosmos 1606 3.1 05:11:29 10° S 05:15:18 62° E 05:19:10 10° NNE
Cosmos 1850 Rocket 4.2 05:11:05 10° NNW 05:16:25 73° ENE 05:21:40 10° SSE
Meteor 1-20 Rocket 4.3 05:11:14 10° N 05:16:54 79° E 05:22:26 10° S
Lacrosse 5 rocket 3.8 05:16:56 10° N 05:19:08 15° NE 05:21:20 10° ENE
Cosmos 1954 Rocket 4.2 05:18:40 32° NW 05:20:34 45° WSW 05:25:36 10° S
SJ-6F 4.3 05:16:35 10° N 05:20:43 83° WNW 05:24:47 10° SSW
Cosmos 1782 Rocket 4.3 05:17:27 10° NNW 05:23:01 34° SW 05:25:52 10° SSW
Cosmos 2369 4.3 05:21:28 10° S 05:26:59 58° ESE 05:32:31 10° NNE
USA 238 DEB 3.8 05:24:15 10° SSW 05:31:16 84° ESE 05:38:18 10° NNE
USA 238 3.8 05:24:20 10° SSW 05:31:21 83° ESE 05:38:24 10° NNE
SKYMED 2 4.2 05:27:28 10° SSE 05:31:43 58° ENE 05:35:59 10° N
USA 234 3.6 05:25:55 10° NNE 05:32:06 47° NW 05:35:49 24° W
CZ-4B R/B 4.4 05:28:37 10° N 05:32:28 40° WNW 05:33:48 31° WSW
GEOS 3 Rocket 3.5 05:27:30 10° SSE 05:32:34 74° WSW 05:37:41 10° NW
Cosmos 1782 2.8 05:30:24 17° SSW 05:33:17 51° W 05:37:11 10° N
Cosmos 2297 Rocket 4.2 05:29:57 10° N 05:34:49 29° ENE 05:39:39 10° ESE
Cosmos 1674 Rocket 3.8 05:35:49 10° S 05:40:11 74° E 05:44:38 10° N
Cosmos 1633 3.9 05:36:52 10° N 05:40:18 42° E 05:43:44 10° SSE
Cosmos 1331 Rocket 4.1 05:35:10 10° S 05:40:19 78° ESE 05:45:32 10° NNE
NOAA 6 4.0 05:36:12 10° N 05:41:17 62° WNW 05:46:19 10° SSW
Cosmos 2278 3.7 05:36:55 10° SSW 05:42:33 85° ESE 05:48:13 10° NNE
Cosmos 1386 Rocket 4.4 05:36:29 10° N 05:42:35 82° W 05:48:46 10° S
Cosmos 2315 Rocket 4.4 05:36:53 10° S 05:43:12 70° E 05:49:31 10° NNE
Tiangong 1 3.3 05:43:31 12° NNW 05:44:39 14° N 05:46:19 10° NE
Cosmos 1745 Rocket 4.0 05:39:00 10° NNW 05:45:00 58° W 05:50:58 10° S
Cosmos 546 4.5 05:45:21 21° NW 05:47:48 75° SW 05:51:37 10° SE
Meteor 2-6 Rocket 4.1 05:42:45 10° SSW 05:48:03 61° W 05:53:25 10° N
Okean-O 3.6 05:44:24 10° NNW 05:48:05 26° WNW 05:49:50 20° WSW
ATLAS 3B R/B 3.1 05:42:03 12° SW 05:48:57 50° NW 05:56:04 10° NNE
Cosmos 883 Rocket 4.5 05:43:00 10° SSW 05:49:19 74° W 05:55:40 10° N
Meteor 1-31 Rocket 4.2 05:50:11 10° NNW 05:52:49 19° WNW 05:52:49 19° WNW
Cosmos 1656 4.2 05:47:45 10° S 05:53:21 65° ESE 05:59:01 10° NNE
IDEFIX/ARIANE 42P 4.4 05:49:05 10° NNE 05:53:49 35° E 05:58:31 10° SSE
Cosmos 2219 3.6 05:49:13 10° NW 05:54:26 38° WSW 05:59:34 10° S
Cosmos 2227 Rocket 2.9 05:50:01 10° NNW 05:55:38 59° ENE 06:01:12 10° SSE
Okean 2 Rocket 4.1 05:52:46 10° NW 05:56:18 24° W 05:59:51 10° SW
Cosmos 1110 Rocket 3.9 05:51:16 10° SSW 05:56:21 62° WNW 06:01:29 10° N
Thor Agena Rocket 4.0 05:51:37 10° SSW 05:56:28 39° W 06:01:18 10° NNW
Delta 2 Rocket 3.9 05:53:38 19° WNW 05:57:00 69° N 06:02:16 10° E
CZ-2C R/B 4.3 05:52:27 10° NNE 05:57:03 36° E 06:01:43 10° SSE
Okean 1 Rocket 3.7 06:02:59 10° N 06:07:20 61° E 06:11:38 10° SSE
Cosmos 1174 3.0 06:10:25 10° SSW 06:13:22 77° WNW 06:16:40 10° NNE
Cosmos 2151 Rocket 4.3 06:12:32 10° NNW 06:16:32 32° W 06:20:29 10° SSW
Cosmos 1302 Rocket 4.0 06:11:38 10° SSW 06:16:55 84° WNW 06:22:14 10° NNE
COSMO-SKYMED 1 3.2 06:15:50 10° SSW 06:19:48 35° W 06:23:47 10° NNW
Cosmos 1697 Rocket 2.9 06:14:45 10° SSW 06:20:23 78° ESE 06:26:04 10° NNE
Meteor 1-28 Rocket 3.6 06:19:35 10° SSW 06:23:04 39° W 06:26:35 10° NNW
Cosmos 2084 3.5 06:19:19 10° SSW 06:23:18 74° ESE 06:27:09 10° NE
Cosmos 1980 Rocket 3.3 06:21:46 10° S 06:27:08 50° ESE 06:32:32 10° NNE
SMAP 3.8 06:25:15 10° NNE 06:29:51 59° E 06:34:25 10° S
ISS -3.2 06:26:55 10° SW 06:30:12 82° SE 06:33:31 10° NE
